Location: B?dimalle
(17.1788°N, 80.5377°E)
Time: 04:52:32
(UTC+00:00)

Vanguard 1 - Pass Details

Date: 23 February 2026
Orbit: 653 x 3818 km, 34.2° (Epoch: 14 March)

Event Time Altitude Azimuth Distance (km) Brightness Sun altitude
Rises 12:32:18 0° 302° (WNW) 5,433 14.7 1.6°
Reaches altitude 10° 12:35:26 10° 307° (NW) 4,784 14.3 0.9°
Maximum altitude 12:50:17 55° 24° (NNE) 3,636 12.8 -2.6°
Drops below altitude 10° 13:12:47 10° 98° (E) 6,918 13.7 -8.0°
Enters shadow 13:15:16 - 100° (E) 7,348 13.9 -8.5°
